IRS-P6 (RESOURCESAT-1)

Last updated on Wed May 14 2025 00:02:26 GMT+0000 (Coordinated Universal Time)

1 28051U 03046A 25133.59041029 .00000299 00000+0 11414-3 0 9996 2 28051 98.2430 183.4914 0065709 100.4304 61.3845 14.35966118123178
UTC large
Height (km)
Speed (km/s)
/
Latitude / Longitude
Inclination (degrees)
Orbital Period (minutes)
Azimuth
Elevation
Range (km)
Doppler Factor

Next 0 passes for location: London (51.5072 / 0.1276)

Sorry there are no passes over London.